Madigan Hospital, WA

6:28 AM PST on February 12, 2016 (GMT -0800)
Gray Army Air Field

Weather History for KGRF - November, 2011

Change the Weather History Date:

Thursday, November 10, 2011

  Actual Average Record
Temperature  
Mean Temperature 46 °F -  
Max Temperature 60 °F 52 °F 62 °F (1997)
Min Temperature 32 °F 37 °F 23 °F (2012)
Degree Days  
Heating Degree Days 19    
Moisture  
Dew Point 38 °F    
Average Humidity 87    
Maximum Humidity 100    
Minimum Humidity 50    
Precipitation  
Precipitation 0.00 in - - ()
Sea Level Pressure  
Sea Level Pressure 30.08 in    
Wind  
Wind Speed 2 mph (SE)    
Max Wind Speed 7 mph    
Max Gust Speed -    
Visibility 8 miles    
Events Fog , Rain    
Averages and records for this station are not official NWS values.
T = Trace of Precipitation, MM = Missing Value Source: NWS Daily Summary

Daily Weather History Graph

Daily Weather History Graph

Search for Another Location

Airport or City:

Trip Planner

Search our weather history database for the weather conditions in past years. The results will help you decide how hot, cold, wet, or windy it might be!

Date:

Astronomy

Nov. 10, 2011 Rise Set
Actual Time 7:06 AM PST 4:41 PM PST
Civil Twilight 6:33 AM PST 5:14 PM PST
Nautical Twilight 5:56 AM PST 5:50 PM PST
Astronomical Twilight 5:21 AM PST 6:26 PM PST
Moon 4:28 PM PST (11/10) 7:07 AM PST (11/10)
Length of Visible Light 10h 40m
Length of Day
9h 35m
Full, 100% of the Moon is Illuminated
Nov 10
Full
Nov 10
Full
Nov 18
Last Quarter
Nov 24
New
Dec 2
First Quarter

Hourly Weather History & Observations

Time (PST) Temp. Windchill Dew Point Humidity Pressure Visibility Wind Dir Wind Speed Gust Speed Precip Events Conditions
12:05 AM 37.4 °F - 37.4 °F 100% 30.15 in 10.0 mi Calm Calm - N/A   Partly Cloudy
12:23 AM 39.2 °F 35.9 °F 37.4 °F 93% 30.15 in 5.0 mi SE 4.6 mph - N/A   Partly Cloudy
12:55 AM 37.4 °F 33.8 °F 36.7 °F 97% 30.14 in 10.0 mi SSE 4.6 mph - N/A   Partly Cloudy
1:05 AM 37.4 °F 34.9 °F 37.4 °F 100% 30.14 in 0.8 mi SSE 3.5 mph - N/A   Clear
1:06 AM 37.4 °F 33.8 °F 37.4 °F 100% 30.14 in 0.8 mi SE 4.6 mph - N/A   Clear
1:19 AM 39.2 °F - 39.2 °F 100% 30.14 in 0.5 mi Calm Calm - N/A Fog Fog
1:20 AM 39.2 °F 37.0 °F 39.2 °F 100% 30.14 in 0.8 mi ESE 3.5 mph - N/A   Clear
1:35 AM 37.4 °F 34.9 °F 37.4 °F 100% 30.14 in 3.0 mi SE 3.5 mph - N/A   Clear
1:43 AM 37.4 °F 33.8 °F 35.6 °F 93% 30.13 in 1.5 mi SE 4.6 mph - N/A   Clear
1:55 AM 36.3 °F - 35.6 °F 97% 30.14 in 10.0 mi Calm Calm - N/A   Clear
2:55 AM 34.9 °F - 34.2 °F 97% 30.14 in 10.0 mi Calm Calm - N/A   Clear
3:55 AM 34.7 °F 30.6 °F 34.0 °F 97% 30.12 in 10.0 mi SE 4.6 mph - N/A   Clear
4:55 AM 34.2 °F 31.2 °F 33.4 °F 97% 30.12 in 10.0 mi ESE 3.5 mph - N/A   Clear
5:55 AM 32.5 °F - 31.8 °F 97% 30.12 in 10.0 mi Calm Calm - N/A   Clear
6:55 AM 32.4 °F 26.0 °F 31.5 °F 96% 30.13 in 10.0 mi SE 6.9 mph - N/A   Clear
7:55 AM 32.4 °F 29.1 °F 31.6 °F 97% 30.14 in 10.0 mi SE 3.5 mph - N/A   Clear
8:55 AM 37.9 °F - 37.0 °F 97% 30.14 in 10.0 mi Calm Calm - N/A   Clear
9:55 AM 45.7 °F 44.4 °F 40.1 °F 81% 30.12 in 10.0 mi ESE 3.5 mph - N/A   Clear
10:55 AM 50.0 °F - 40.5 °F 70% 30.12 in 10.0 mi Calm Calm - N/A   Clear
11:11 AM 50.0 °F - 41.0 °F 71% 30.11 in 10.0 mi Calm Calm - N/A   Light Drizzle
11:55 AM 53.6 °F - 41.2 °F 63% 30.10 in 10.0 mi Calm Calm - 0.00 in   Clear
12:55 PM 56.8 °F - 42.8 °F 59% 30.06 in 10.0 mi Calm Calm - N/A   Clear
1:55 PM 59.4 °F - 40.6 °F 50% 30.05 in 10.0 mi Calm Calm - N/A   Clear
2:55 PM 60.1 °F - 42.4 °F 52% 30.04 in 10.0 mi West 3.5 mph - N/A   Clear
3:15 PM 59.0 °F - 41.0 °F 51% 30.03 in 10.0 mi Calm Calm - N/A Rain Light Rain
3:55 PM 58.3 °F - 43.3 °F 58% 30.02 in 10.0 mi SE 3.5 mph - N/A   Clear
4:55 PM 47.5 °F - 42.8 °F 84% 30.01 in 10.0 mi SE 4.6 mph - N/A   Clear
5:55 PM 43.5 °F - 41.0 °F 91% 30.01 in 10.0 mi Calm Calm - N/A   Clear
6:55 PM 41.0 °F 37.1 °F 39.7 °F 95% 30.00 in 10.0 mi SE 5.8 mph - N/A   Clear
7:55 PM 40.1 °F - 39.0 °F 96% 30.00 in 10.0 mi Calm Calm - N/A   Clear
8:55 PM 37.8 °F 35.3 °F 36.5 °F 95% 29.99 in 10.0 mi SSE 3.5 mph - N/A   Clear
9:55 PM 37.0 °F 33.3 °F 35.8 °F 95% 29.98 in 10.0 mi SE 4.6 mph - N/A   Clear
10:55 PM 33.8 °F 30.8 °F 32.7 °F 96% 29.95 in 10.0 mi SE 3.5 mph - N/A   Clear
11:55 PM 35.6 °F 32.8 °F 34.7 °F 97% 29.92 in 10.0 mi ESE 3.5 mph - N/A   Clear